Weather History for Sand Island, Henderson Field, HI

Change the Weather History Date:

Saturday, December 7, 2013

  Actual Average Record
Temperature  
Mean Temperature 72 °F -  
Max Temperature 75 °F - - ()
Min Temperature 69 °F - - ()
Cooling Degree Days 7    
Growing Degree Days 22 (Base 50)    
Moisture  
Dew Point 67 °F    
Average Humidity 84    
Maximum Humidity 100    
Minimum Humidity 57    
Precipitation  
Precipitation 0.34 in - - ()
Sea Level Pressure  
Sea Level Pressure 30.10 in    
Wind  
Wind Speed 23 mph (SW)    
Max Wind Speed 33 mph    
Max Gust Speed 41 mph    
Visibility 1 miles    
Events Fog , Rain    
T = Trace of Precipitation, MM = Missing Value Source: NWS Daily Summary

Daily Weather History Graph

Daily Weather History Graph

Search for Another Location

Airport:

Trip Planner

Search our weather history database for the weather conditions in past years. The results will help you decide how hot, cold, wet, or windy it might be!

Date:

Astronomy

Dec. 07, 2013 Rise Set
Actual Time 6:28 PM GMT 4:53 AM GMT
Civil Twilight 6:03 PM GMT 5:19 AM GMT
Nautical Twilight 5:33 PM GMT 5:48 AM GMT
Astronomical Twilight 5:05 PM GMT 6:17 AM GMT
Moon 10:41 PM GMT (12/7) 9:27 AM GMT (12/7)
Length of Visible Light 11h 16m
Length of Day
10h 24m
Waxing Crescent, 27% of the Moon is Illuminated
Dec 7
Waxing Crescent
Dec 9
First Quarter
Dec 17
Full
Dec 25
Last Quarter
Jan 1
New

Hourly Weather History & Observations

Time (GMT) Temp. Dew Point Humidity Pressure Visibility Wind Dir Wind Speed Gust Speed Precip Events Conditions
12:10 AM 71.6 °F 64.4 °F 78% 29.92 in - South 21.9 mph 31.1 mph N/A   Unknown
12:22 AM 71.6 °F 64.4 °F 78% 29.91 in 0.2 mi SSE 26.5 mph 31.1 mph N/A   Haze
12:38 AM 71.6 °F 66.2 °F 83% 29.90 in 0.5 mi South 26.5 mph 34.5 mph N/A   Haze
12:56 AM 70.9 °F 65.8 °F 84% 30.79 in 0.5 mi South 25.3 mph 31.1 mph N/A   Haze
1:07 AM 71.6 °F 66.2 °F 83% 29.87 in 0.5 mi South 24.2 mph 34.5 mph N/A Fog Fog
1:44 AM 71.6 °F 66.2 °F 83% 29.85 in 0.5 mi South 24.2 mph 33.4 mph 0.00 in Fog , Rain Light Rain
1:56 AM 70.9 °F 66.9 °F 87% 30.76 in 0.5 mi South 28.8 mph 41.4 mph 0.00 in Fog , Rain Light Rain
2:10 AM 71.6 °F 66.2 °F 83% 29.84 in - South 28.8 mph 34.5 mph N/A   Unknown
2:22 AM 71.6 °F 66.2 °F 83% 29.84 in 0.2 mi South 26.5 mph 35.7 mph N/A   Haze
2:29 AM 71.6 °F 66.2 °F 83% 29.83 in 0.5 mi South 28.8 mph 40.3 mph N/A   Haze
2:34 AM 71.6 °F 68.0 °F 88% 29.83 in 1.0 mi South 31.1 mph 40.3 mph N/A   Mist
2:38 AM 71.6 °F 68.0 °F 88% 29.84 in 2.0 mi South 33.4 mph 38.0 mph N/A   Mostly Cloudy
2:48 AM 71.6 °F 66.2 °F 83% 29.85 in 3.0 mi South 31.1 mph 38.0 mph N/A   Haze
2:56 AM 71.6 °F 66.2 °F 83% 29.85 in 1.2 mi South 25.3 mph 38.0 mph N/A   Haze
3:03 AM 71.6 °F 66.2 °F 83% 29.84 in 1.0 mi South 31.1 mph 36.8 mph N/A   Haze
3:10 AM 69.8 °F 66.2 °F 88% 29.85 in 0.8 mi South 26.5 mph 35.7 mph 0.03 in   Overcast
3:20 AM 71.6 °F 66.2 °F 83% 29.84 in 1.2 mi South 21.9 mph 32.2 mph 0.03 in   Mostly Cloudy
3:22 AM 71.6 °F 66.2 °F 83% 29.84 in 2.0 mi South 23.0 mph 32.2 mph 0.03 in   Mostly Cloudy
3:32 AM 71.6 °F 68.0 °F 88% 29.84 in 3.0 mi South 25.3 mph 32.2 mph 0.03 in   Mostly Cloudy
3:56 AM 70.9 °F 68.0 °F 91% 30.76 in 2.0 mi SSW 23.0 mph 31.1 mph 0.03 in   Overcast
4:02 AM 71.6 °F 69.8 °F 94% 29.85 in 1.2 mi South 20.7 mph 28.8 mph N/A   Overcast
4:07 AM 71.6 °F 69.8 °F 94% 29.85 in 0.8 mi SSW 25.3 mph 31.1 mph 0.01 in   Overcast
4:22 AM 71.6 °F 69.8 °F 94% 29.85 in 0.5 mi SSW 25.3 mph 35.7 mph 0.03 in Fog Fog
4:34 AM 71.6 °F 69.8 °F 94% 29.86 in 0.2 mi WSW 19.6 mph 24.2 mph 0.12 in Fog Fog
4:42 AM 71.6 °F 69.8 °F 94% 29.86 in 0.2 mi WSW 19.6 mph 31.1 mph 0.21 in Fog Fog
4:49 AM 71.6 °F 69.8 °F 94% 29.85 in - SW 15.0 mph 28.8 mph 0.30 in   Overcast
4:56 AM 70.9 °F 70.9 °F 100% 30.75 in - SW 27.6 mph 36.8 mph 0.31 in   Overcast
5:09 AM 71.6 °F 71.6 °F 100% 29.84 in - SSW 29.9 mph 38.0 mph N/A   Mostly Cloudy
5:28 AM 71.6 °F 71.6 °F 100% 29.84 in - SSW 27.6 mph 35.7 mph N/A   Overcast
5:56 AM 72.0 °F 70.9 °F 96% 30.74 in - SSW 21.9 mph - N/A   Mostly Cloudy
6:47 AM 73.4 °F 69.8 °F 88% 29.85 in - WSW 21.9 mph - N/A   Mostly Cloudy
6:56 AM 72.9 °F 70.0 °F 91% 30.75 in - WSW 24.2 mph - N/A   Mostly Cloudy
7:22 AM 73.4 °F 71.6 °F 94% 29.84 in - WSW 20.7 mph - N/A   Mostly Cloudy
7:31 AM 73.4 °F 71.6 °F 94% 29.83 in - WSW 18.4 mph - N/A   Mostly Cloudy
7:56 AM 72.9 °F 72.0 °F 97% 30.74 in - WSW 20.7 mph 24.2 mph N/A   Mostly Cloudy
8:56 AM 73.9 °F 70.0 °F 87% 30.74 in - WSW 16.1 mph - 0.00 in Rain Light Rain
9:56 AM 72.0 °F 68.0 °F 87% 30.73 in - NW 12.7 mph 21.9 mph 0.00 in   Mostly Cloudy
10:06 AM 71.6 °F 66.2 °F 83% 29.82 in - NW 12.7 mph - N/A   Mostly Cloudy
10:22 AM 71.6 °F 66.2 °F 83% 29.82 in - NW 9.2 mph - N/A   Clear
10:56 AM 70.9 °F 66.9 °F 87% 30.73 in - NW 4.6 mph - N/A   Mostly Cloudy
11:56 AM 71.6 °F 66.2 °F 83% 29.80 in - WNW 10.4 mph 16.1 mph N/A   Mostly Cloudy
12:13 PM 71.6 °F 66.2 °F 83% 29.78 in - West 12.7 mph - 0.00 in Rain Light Rain
12:21 PM 69.8 °F 66.2 °F 88% 29.78 in - West 16.1 mph - 0.00 in Rain Light Rain
12:56 PM 70.0 °F 65.8 °F 87% 30.67 in - WSW 16.1 mph - 0.00 in   Mostly Cloudy
1:40 PM 71.6 °F 66.2 °F 83% 29.77 in - WSW 19.6 mph 24.2 mph 0.00 in Rain Light Rain
1:56 PM 70.9 °F 65.8 °F 84% 30.66 in - WSW 19.6 mph 26.5 mph 0.00 in   Mostly Cloudy
2:09 PM 71.6 °F 64.4 °F 78% 29.75 in - WSW 18.4 mph 24.2 mph N/A   Mostly Cloudy
2:56 PM 70.9 °F 65.8 °F 84% 30.65 in - WSW 17.3 mph - N/A   Mostly Cloudy
3:56 PM 70.9 °F 66.9 °F 87% 30.63 in - West 19.6 mph 24.2 mph N/A   Mostly Cloudy
4:56 PM 70.9 °F 64.9 °F 81% 30.63 in - West 15.0 mph - N/A   Mostly Cloudy
5:56 PM 70.9 °F 63.9 °F 78% 30.63 in - West 12.7 mph 21.9 mph N/A   Mostly Cloudy
6:07 PM 71.6 °F 64.4 °F 78% 29.73 in - West 16.1 mph - N/A   Clear
6:19 PM 71.6 °F 64.4 °F 78% 29.73 in - West 17.3 mph - N/A   Mostly Cloudy
6:56 PM 70.9 °F 64.9 °F 81% 30.64 in - West 16.1 mph 21.9 mph N/A   Mostly Cloudy
7:18 PM 71.6 °F 66.2 °F 83% 29.74 in - West 16.1 mph 21.9 mph N/A   Mostly Cloudy
7:56 PM 73.9 °F 65.8 °F 76% 30.65 in - West 15.0 mph - N/A   Mostly Cloudy
8:12 PM 73.4 °F 66.2 °F 78% 29.75 in - West 15.0 mph - N/A   Mostly Cloudy
8:56 PM 73.4 °F 64.4 °F 73% 29.76 in - West 18.4 mph 25.3 mph N/A Rain Light Rain
9:17 PM 73.4 °F 62.6 °F 69% 29.75 in - WNW 17.3 mph 26.5 mph 0.00 in   Mostly Cloudy
9:26 PM 73.4 °F 62.6 °F 69% 29.75 in - West 17.3 mph 24.2 mph 0.00 in   Clear
9:56 PM 73.9 °F 61.0 °F 64% 30.64 in - West 20.7 mph 28.8 mph 0.00 in   Clear
10:56 PM 75.9 °F 59.9 °F 57% 30.62 in - West 19.6 mph 26.5 mph N/A   Mostly Cloudy
11:56 PM 73.4 °F 59.0 °F 61% 29.69 in - West 21.9 mph 29.9 mph N/A   Mostly Cloudy